x

9410230 - La Jolla, Ca (ljac1) Weather Station

7:54 - Tue 21st Oct 2014 All times are PDT. -7 hours from GMT.

  • Wind
    3mph, 7mph gusts
  • Sea Temp 71°f
  • Air Temp 69°f
  • Sea Pressure 1011.3mb
  • 9410230 - La Jolla, Ca
  • 9410230 - La Jolla, Ca

More Historic Weather Station data

Upgrade to MSW Pro to gain access to the past 30 days of data for over 8000 Wavebouys and Weather Stations around the globe.

Join Pro

Comparision Forecast

View Surf forecast
   
mar. 10/21 7:54 3 7 mph 1011.3mb 71f 69f
7:48 6 7 mph 1011.4mb 71f 69f
7:42 6 7 mph 1011.4mb 71f 69f
7:36 6 7 mph 1011.4mb 71f 69f
7:30 6 7 mph 1011.4mb 71f 69f
7:24 6 8 mph 1011.3mb 71f 69f
7:18 8 10 mph 1011.4mb 71f 69f
7:12 8 10 mph 1011.4mb 71f 69f
7:06 10 11 mph 1011.3mb 71f 69f
7:00 9 11 mph 1011.3mb 71f 69f
6:54 11 14 mph 1011.3mb 71f 69f
6:48 9 11 mph 1011.3mb 71f 69f
6:42 10 11 mph 1011.1mb 71f 69f
6:36 9 11 mph 1011.1mb 71f 69f
6:30 9 10 mph 1011mb 71f 69f
6:24 8 9 mph 1011mb 71f 69f
6:18 7 10 mph 1010.9mb 71f 69f
6:12 8 10 mph 1010.9mb 71f 69f
6:06 9 10 mph 1010.9mb 71f 69f
6:00 7 8 mph 1010.8mb 71f 69f
5:54 7 9 mph 1010.7mb 71f 69f
5:48 8 9 mph 1010.7mb 71f 69f
5:42 7 8 mph 1010.6mb 71f 69f
5:36 7
mph
1010.6mb 71f 69f
5:30 6 7 mph 1010.5mb 71f 69f
5:24 6 7 mph 1010.5mb 71f 69f
5:18 6 8 mph 1010.5mb 71f 69f
5:12 8 9 mph 1010.6mb 72f 70f
5:06 7 8 mph 1010.6mb 72f 70f
5:00 7 8 mph 1010.5mb 72f 70f
4:54 6 7 mph 1010.5mb 72f 70f
4:48 5 7 mph 1010.5mb 72f 70f
4:42 7 8 mph 1010.5mb 72f 70f
4:36 7 9 mph 1010.6mb 72f 70f
4:30 6 8 mph 1010.6mb 72f 70f
4:24 7 9 mph 1010.6mb 72f 70f
4:18 7 8 mph 1010.6mb 72f 70f
4:12 7 8 mph 1010.6mb 72f 70f
4:06 8 9 mph 1010.7mb 72f 70f
4:00 7 8 mph 1010.7mb 72f 70f
3:54 6 8 mph 1010.7mb 72f 70f
3:48 6 8 mph 1010.6mb 72f 70f
3:42 6 8 mph 1010.7mb 72f 70f
3:36 5 7 mph 1010.6mb 72f 70f
3:30 6 8 mph 1010.6mb 72f 70f
3:24 6 8 mph 1010.6mb 72f 70f
3:18 7 9 mph 1010.7mb 72f 70f
3:12 8 9 mph 1010.8mb 72f 69f
3:06 8 9 mph 1010.8mb 72f 69f
3:00 8 9 mph 1010.8mb 72f 69f
2:54 8 9 mph 1010.9mb 72f 69f
2:48 8 9 mph 1010.9mb 72f 69f
2:42 8 9 mph 1010.9mb 72f 69f
2:36 8 11 mph 1011mb 72f 69f
2:30 10 11 mph 1011.1mb 72f 69f
2:24 9 13 mph 1011.2mb 72f 69f
2:18 10 13 mph 1011.3mb 72f 69f
2:12 10 13 mph 1011.3mb 72f 69f
2:06 10 13 mph 1011.4mb 72f 69f
2:00 10 11 mph 1011.5mb 72f 69f
1:54 10 11 mph 1011.5mb 72f 69f
1:48 9 10 mph 1011.5mb 72f 69f
1:42 8 10 mph 1011.5mb 72f 69f
1:36 8 10 mph 1011.5mb 72f 70f
1:30 7 9 mph 1011.5mb 71f 69f
1:24 8 9 mph 1011.7mb 71f 69f
1:18 8 9 mph 1011.8mb 71f 69f
1:12 7 8 mph 1011.8mb 71f 69f
1:06 5 6 mph 1011.8mb 72f 69f
1:00 5 6 mph 1011.8mb 71f 69f
12:54 6 7 mph 1011.8mb 71f 69f
12:48 6 7 mph 1011.9mb 71f 69f
12:42 7 8 mph 1012mb 71f 69f
12:36 6 7 mph 1012.1mb 71f 69f
12:30 5 7 mph 1012.2mb 71f -
12:24 6 7 mph 1012.3mb 71f -
12:18 6 7 mph 1012.4mb 71f 69f
12:12 7 8 mph 1012.5mb 71f 69f
12:06 7 9 mph 1012.6mb 71f 69f
12:00 6 7 mph 1012.6mb 71f 69f
11:54 6 7 mph 1012.6mb 71f 69f
11:48 6 8 mph 1012.6mb 71f 69f
11:42 7 9 mph 1012.6mb 71f 69f
11:36 7 8 mph 1012.7mb 71f 69f
11:30 7 8 mph 1012.8mb 71f 69f
11:24 6 8 mph 1012.9mb 71f 69f
11:18 6 7 mph 1012.9mb 71f 69f
11:12 6 7 mph 1012.9mb 71f 69f
11:06 7 8 mph 1012.9mb 71f 69f
11:00 6 7 mph 1012.9mb 71f 69f
10:54 6 8 mph 1012.9mb 71f 69f
10:48 7
mph
1013mb 71f 69f
10:42 7 8 mph 1013.1mb 71f 69f
10:36 8 10 mph 1013.1mb 71f 69f
10:30 10 11 mph - 71f -
10:24 8 9 mph - 71f -
10:18 8
mph
1013.1mb 71f 69f
10:12 9 10 mph 1013.1mb 71f 69f
10:06 9
mph
1013.1mb 71f 69f
10:00 7 8 mph 1013mb 71f 69f
9:54 6 7 mph 1013mb 71f 69f
9:48 6
mph
1012.9mb 71f 70f
9:42 3 5 mph 1012.9mb 71f 70f
9:36 3
mph
1012.9mb 71f 71f
9:30 2
mph
1012.8mb 71f 72f
9:24  -  mph 1012.8mb 71f 73f
9:18  -  2 mph 1012.8mb 71f 71f
9:12  -  2 mph 1012.8mb 71f 70f
9:06  -  2 mph 1012.9mb 71f 70f
9:00 1 2 mph 1012.9mb 71f 69f
8:54 1 2 mph 1013mb 71f 69f
8:48 2 3 mph 1013mb 71f 69f
8:42 2
mph
1013.1mb 71f 69f
8:36 3 5 mph 1013.1mb 71f 69f
8:30 1 3 mph 1013.1mb 71f 69f
8:24 1 3 mph 1012.9mb 71f 69f
8:18 2 3 mph 1013mb 71f 69f
8:12 1 5 mph 1012.9mb 71f 69f
8:06 5 7 mph 1012.9mb 71f 68f
8:00 5 6 mph 1012.8mb 71f 68f
7:54 3 6 mph 1012.4mb 71f 69f
7:48 2
mph
1012.5mb 71f 69f
7:42 2
mph
1012.6mb 71f 68f
7:36  -  1 mph 1012.6mb 71f 68f
7:30  -  5 mph 1012.6mb 71f 68f
7:24 3 5 mph 1012.3mb 71f 69f
7:18 3 6 mph 1012.2mb 71f 68f
7:12 3 5 mph 1012.4mb 70f 68f
7:06 2 3 mph 1012.5mb 70f 68f
7:00 2 6 mph 1012.6mb 70f 68f
6:54 3 7 mph 1012.8mb 71f 68f
6:48 3 6 mph 1012.7mb 71f 68f
6:42 2 3 mph 1012.6mb 71f 68f
6:36 1 2 mph 1012.5mb 71f 68f
6:30 2
mph
1012.4mb 71f 68f
6:24 2 3 mph 1012.4mb 71f 68f
6:18  -  2 mph 1012.4mb 71f 68f
6:12 1 2 mph 1012.3mb 71f 68f
6:06 2 3 mph 1012.1mb 71f 68f
6:00 2
mph
1011.9mb 71f 68f
5:54 1 5 mph 1012mb 71f 68f
5:48 3 6 mph 1011.8mb 71f 68f
5:42 5
mph
1011.8mb 71f 68f
5:36 2 5 mph 1012mb 71f 68f
5:30 2 6 mph 1012mb 71f 69f
5:24 5
mph
1011.9mb 71f 69f
5:18 3 5 mph 1011.9mb 71f 69f
5:12  -  3 mph 1012mb 71f 69f
5:06 5 6 mph 1012mb 71f 69f
5:00 3 5 mph 1012mb 71f 69f
4:54 2 6 mph 1012.1mb 71f 69f
4:48 3 6 mph 1012.1mb 71f 69f
4:42 5
mph
1012.2mb 71f 69f
4:36 3 5 mph 1012.4mb 71f 68f
4:30 3 6 mph 1012.2mb 71f 69f
4:24 3 6 mph 1012.2mb 71f 69f
4:18 5 6 mph 1012.2mb 71f 68f
4:12 5 6 mph 1012.2mb 71f 68f
4:06 5 6 mph 1012.1mb 71f 68f
4:00 3 6 mph 1012.2mb 71f 68f
3:54 5
mph
1012.2mb 71f 68f
3:48 2 5 mph 1012.3mb 71f 69f
3:42 2 3 mph 1012.3mb 71f 69f
3:36 3
mph
1012.4mb 71f 69f
3:30 2
mph
1012.5mb 71f 69f
3:24 1 3 mph 1012.5mb 71f 69f
3:18 3
mph
1012.5mb 71f 68f
3:12 2 3 mph 1012.5mb 71f 69f
3:06 2 3 mph 1012.5mb 71f 68f
3:00 5 6 mph 1012.5mb 71f 68f
2:54 3 5 mph 1012.4mb 71f 68f
2:48 2 3 mph 1012.6mb 71f 68f
2:42 2 3 mph 1012.6mb 71f 68f
2:36 3 5 mph 1012.6mb 71f 68f
2:30 5
mph
1012.6mb 71f 68f
2:24 2 5 mph 1012.6mb 71f 68f
2:18 2 5 mph 1012.6mb 71f 68f
2:12 3 6 mph 1012.6mb 71f 68f
2:06 5 6 mph 1012.4mb 71f 68f
2:00 3 6 mph 1012.5mb 71f 68f
1:54 5
mph
1012.5mb 71f 68f
1:48 3 5 mph 1012.6mb 71f 68f
1:42 2 5 mph 1012.5mb 71f 69f
1:36 3
mph
1012.5mb 71f 68f
1:30 3 5 mph 1012.6mb 71f 68f
1:24 3 5 mph 1012.5mb 71f 69f
1:18 3 5 mph 1012.6mb 71f 69f
1:12 3 5 mph 1012.7mb 71f 69f
1:06 2 6 mph 1012.7mb 71f 69f
1:00 6
mph
1012.6mb 71f 69f
12:54 3 6 mph 1012.5mb 71f 69f
12:48 2 5 mph 1012.6mb 71f 69f
12:42 3 5 mph 1012.6mb 71f 69f
12:36 3 5 mph 1012.7mb 71f 69f
12:30 2 3 mph 1012.7mb 71f 69f
12:24 2 3 mph 1012.7mb 71f 69f
12:18 1 2 mph 1012.8mb 71f 69f
12:12 2 5 mph 1012.8mb 71f 69f
12:06 3 5 mph 1012.7mb 71f 69f
12:00 1 3 mph 1012.8mb 71f 69f
lun. 10/20 11:54 2 3 mph 1012.9mb 71f 69f
11:48 2 5 mph 1012.9mb 71f 69f
11:42 3 5 mph 1013mb 71f 69f
11:36  -  1 mph 1013mb 71f 69f
11:30  -  3 mph 1013mb 71f 69f
11:24 3
mph
1013mb 71f 69f
11:18 2 3 mph 1013mb 71f 69f
11:12  -  1 mph 1013mb 71f 69f
11:06  -  2 mph 1013mb 71f 69f
11:00 2
mph
1013.1mb 71f 69f
10:54  -  2 mph 1013.1mb 71f 69f
10:48 1 3 mph 1013.1mb 71f 69f
10:42 3
mph
1013.2mb 71f 69f
10:36 2
mph
1013.3mb 71f 69f
10:30 1 2 mph 1013.3mb 71f 69f
10:24 1 2 mph 1013.3mb 71f 69f
10:18 1 2 mph 1013.2mb 71f 69f
10:12  -  2 mph 1013.2mb 71f 69f
10:06 2 5 mph 1013.2mb 71f 69f
10:00 3 5 mph 1013.2mb 71f 69f
9:54 3 5 mph 1013.3mb 71f 69f
9:48 3 5 mph 1013.3mb 71f 69f
9:42 3 5 mph 1013.3mb 71f 69f
9:36 3 6 mph 1013.2mb 71f 69f
9:30 3 6 mph 1013.2mb 71f 69f
9:24 6
mph
1013.2mb 71f 69f
9:18 6 7 mph 1013.2mb 71f 69f
9:12 6 8 mph 1013.1mb 71f 69f
9:06 7 8 mph 1013mb 71f 69f
9:00 6 8 mph 1013mb 71f 69f
8:54 6 8 mph 1012.9mb 71f 68f
8:48 7 9 mph 1012.9mb 71f 68f
8:42 8 10 mph 1012.9mb 71f 69f
8:36 7 9 mph 1012.9mb 71f 69f
8:30 6 7 mph 1012.8mb 71f 69f
8:24 6 7 mph 1012.7mb 71f 69f
8:18 5 6 mph 1012.7mb 71f 69f
8:12 5 6 mph 1012.7mb 71f 69f
8:06 5 9 mph 1012.7mb 71f 69f
8:00 5 7 mph 1012.6mb 71f 69f
7:54 5 7 mph 1012.5mb 71f 69f
7:48 6 7 mph 1012.5mb 71f 69f
6:54  -  mph 1012.3mb 71f 69f
6:48  -  mph 1012.3mb 71f 69f
6:24  -  mph - 71f -
6:18  -  mph - 71f -
6:12 6 8 mph - - -
6:06 6 8 mph - - -
6:00 7 8 mph - - -
5:54 8 9 mph - - -
5:48  -  mph - 71f 69f
5:42  -  mph - 71f 69f
5:36  -  mph - 71f 69f
5:30 7 10 mph 1011.8mb 71f 69f
5:24 7 9 mph 1011.7mb 71f 70f
5:18 7 9 mph 1011.7mb 71f 70f
5:12 6 9 mph 1011.7mb 71f 70f
5:06 8 9 mph 1011.8mb 71f 70f
5:00 7 10 mph 1011.8mb 71f 71f
4:54 7 9 mph 1011.8mb 71f 71f
4:48 8 9 mph 1011.9mb 71f 70f
4:42 7 10 mph 1011.9mb 71f 70f
4:36 6 9 mph 1011.8mb 71f 70f
4:30 7 9 mph 1011.8mb 71f 70f
4:24 7 8 mph 1011.8mb 71f 70f
4:18 6 8 mph 1011.8mb 71f 70f
4:12 7 9 mph 1011.8mb 71f 70f
4:06 7 9 mph 1011.8mb 71f 71f
4:00 7 8 mph 1011.8mb 71f 71f
3:54 7 9 mph 1011.8mb 71f 71f
3:48 7 8 mph 1011.9mb 71f 71f
3:42 7 9 mph 1012mb 71f 71f
3:36 7 8 mph 1012mb 71f 71f
3:30 6 8 mph 1012mb 71f 71f
3:24 6 7 mph 1012mb 71f 72f
3:18 6 7 mph 1011.9mb 71f 72f
3:12 6 8 mph 1012mb 71f 71f
3:06 5 8 mph 1012mb 71f 71f
3:00 6 8 mph 1012mb 71f 71f
2:54 6 8 mph 1012mb 71f 71f
2:48 7 8 mph 1012.1mb 71f 70f
2:42 8 9 mph 1012.1mb 71f 70f
2:36 7 9 mph 1012.2mb 71f 70f
2:30 8 10 mph 1012.3mb 71f 70f
2:24 9 10 mph 1012.4mb 71f 70f
2:18 9 11 mph 1012.4mb 71f 70f
2:12 8 10 mph 1012.4mb 71f 69f
2:06 9 11 mph 1012.5mb 71f 69f
2:00 9 13 mph 1012.5mb 71f 70f
1:54 10 11 mph 1012.6mb 71f 70f
1:48 8 11 mph 1012.6mb 71f 70f
1:42 9 11 mph 1012.7mb 71f 70f
1:36 9 13 mph 1012.7mb 71f 70f
1:30 10 13 mph 1012.8mb 71f 70f
1:24 9 11 mph 1012.9mb 71f 70f
1:18 9 10 mph 1013mb 71f 70f
1:12 8 9 mph 1012.9mb 71f 70f
1:06 6 8 mph 1012.9mb 71f 70f
1:00 7 9 mph 1013mb 71f 70f
12:54 5 6 mph 1013.1mb 71f 71f
12:48 2 5 mph 1013.1mb 71f 72f
12:42 3 5 mph 1013.2mb 71f 72f
12:36 3 6 mph 1013.2mb 71f 71f
12:30 3 5 mph 1013.3mb 71f 71f
12:24 2 3 mph 1013.4mb 71f 70f
12:18 3
mph
1013.5mb 71f 70f
12:12 3 6 mph 1013.6mb 71f 70f
12:06 6
mph
1013.7mb 71f 70f
12:00 5 6 mph 1013.8mb 71f 70f
11:54 5 6 mph 1013.8mb 71f 70f
11:48 5 6 mph 1013.9mb 71f 70f
11:42 5 6 mph 1013.9mb 71f 70f
11:36 5 6 mph 1014mb 71f 70f
11:30 2 5 mph 1014.1mb 71f 70f
11:24 3 5 mph 1014.1mb 70f 70f
11:18 3 5 mph 1014.2mb 70f 70f
11:12 3 5 mph 1014.3mb 70f 70f
11:06 3 5 mph 1014.3mb 70f 70f
11:00 3 5 mph 1014.4mb 70f 70f
10:54 3 6 mph 1014.4mb 70f 70f
10:48 2 3 mph 1014.4mb 71f 70f
10:42 3
mph
1014.3mb 71f 70f
10:36 2 3 mph 1014.3mb 71f 70f
10:30 1 2 mph 1014.2mb 71f 71f
10:24 1 2 mph 1014.2mb 71f 70f
10:18 1 2 mph 1014.2mb 71f 70f
10:12  -  1 mph 1014.2mb 71f 70f
10:06  -  1 mph 1014.2mb 71f 70f
10:00  -  1 mph 1014.2mb 71f 69f
9:54 1 3 mph 1014.2mb 71f 69f
9:48 1 3 mph 1014.2mb 71f 69f
9:42 2 3 mph 1014.2mb 71f 69f
9:36 3 5 mph 1014.1mb 71f 68f
9:30 5 6 mph 1014.2mb 71f 68f
9:24 5 6 mph 1014.2mb 71f 68f
9:18 5 6 mph 1014.1mb 71f 68f
9:12 3 6 mph 1014.1mb 71f 68f
9:06 6 7 mph 1014.1mb 71f 68f
9:00 6 7 mph 1014mb 71f 68f
8:54 7
mph
1014mb 71f 68f
8:48 6 7 mph 1014mb 71f 68f
8:42 6 7 mph 1014mb 71f 68f
8:36 5 8 mph 1013.9mb 71f 68f
8:30 5 8 mph 1013.8mb 71f 67f
8:24 7 8 mph 1013.7mb 71f 67f
8:18 6 8 mph 1013.6mb 71f 68f
8:12 6 7 mph 1013.6mb 71f 68f
8:06 5 8 mph 1013.4mb 71f 67f
8:00 7 8 mph 1013.4mb 71f 67f
7:54 8
mph
1013.4mb 71f 67f
7:48 7 8 mph 1013.3mb 71f 67f
7:42 6 7 mph 1013.2mb 71f 67f
7:36 6 7 mph 1013mb 71f 67f
7:30 6 7 mph 1012.9mb 71f 67f
7:24 5 8 mph 1012.9mb 71f 67f
7:18 7 8 mph 1012.9mb 71f 67f
7:12 6 7 mph 1012.9mb 71f 67f
7:06 6 7 mph 1012.8mb 71f 67f
7:00 5
mph
1012.8mb 71f 67f
6:54 6
mph
1012.8mb 71f 67f
6:48 3 5 mph 1012.7mb 71f 67f
6:42 5
mph
1012.8mb 71f 67f
6:36 5
mph
1012.8mb 71f 67f
6:30 3
mph
1012.7mb 71f 67f
6:24 5
mph
1012.7mb 71f 67f
6:18 3 6 mph 1012.7mb 71f 67f
6:12 5 6 mph 1012.6mb 71f 67f
6:06 3 5 mph 1012.7mb 71f 67f
6:00 2 5 mph 1012.6mb 71f 67f
5:54 3 5 mph 1012.6mb 71f 67f
5:48 3 5 mph 1012.6mb 71f 67f
5:42 3 6 mph 1012.5mb 71f 67f
5:36 3 6 mph 1012.5mb 71f 67f
5:30 5 6 mph 1012.4mb 71f 67f
5:24 3 5 mph 1012.3mb 71f 67f
5:18 3 5 mph 1012.3mb 71f 67f
5:12 2 3 mph 1012.2mb 71f 67f
5:06 3 5 mph 1012.2mb 71f 67f
5:00 2 5 mph 1012.1mb 71f 67f
4:54 2 5 mph 1012.2mb 71f 67f
4:48 2 5 mph 1012.1mb 71f 67f
4:42 1 3 mph 1012mb 71f 67f
4:36 3 5 mph 1012mb 71f 67f
4:30 3 5 mph 1011.9mb 71f 67f
4:24 3 5 mph 1011.9mb 71f 67f
4:18 5 6 mph 1011.9mb 71f 67f
4:12 3 5 mph 1011.9mb 71f 67f
4:06 2 3 mph 1011.9mb 71f 67f
4:00 2 5 mph 1011.8mb 71f 67f
3:54 3 5 mph 1011.8mb 71f 67f
3:48 2 3 mph 1011.8mb 71f 67f
3:42 1 2 mph 1011.8mb 71f 67f
3:36 1 2 mph 1011.8mb 71f 67f
3:30 1
mph
1011.8mb 71f 67f
3:24  -  1 mph 1011.7mb 71f 67f
3:18  -  1 mph 1011.7mb 71f 67f
3:06  -  1 mph 1011.8mb 71f 67f
3:00  -  2 mph 1011.8mb 71f 67f
2:54 2
mph
1011.8mb 71f 67f
2:48  -  mph 1011.8mb 71f 67f
2:42  -  2 mph 1011.8mb 71f 67f
2:36 1 2 mph 1011.9mb 71f 67f
2:30 1 2 mph 1011.9mb 71f 68f
2:24 2
mph
1012mb 71f 68f
2:18 2 3 mph 1012mb 71f 68f
2:12 1 2 mph 1011.9mb 71f 67f
2:06 1 2 mph 1012mb 71f 67f
2:00  -  1 mph 1012.1mb 71f 67f
1:54  -  mph 1012.1mb 71f 67f
1:48  -  1 mph 1012mb 71f 67f
1:42 1 2 mph 1012mb 71f 67f
1:36  -  2 mph 1012mb 71f 67f
1:30 2 3 mph 1012mb 71f 67f
1:24 2 5 mph 1011.9mb 71f 67f
1:18 2 3 mph 1011.9mb 71f 67f
1:12 2 3 mph 1011.9mb 71f 67f
1:06 3 6 mph 1012mb 71f 67f
1:00 7 8 mph 1012mb 71f 67f
12:54 7
mph
1012mb 71f 67f
12:48 7
mph
1011.9mb 71f 67f
12:42 7
mph
1012mb 71f 67f
12:36 7
mph
1012mb 71f 67f
12:30 6 7 mph 1012.1mb 71f 67f
12:24 6 7 mph 1012.1mb 71f 67f
12:18 7 8 mph 1012.1mb 71f 67f
12:12 7 8 mph 1012.1mb 71f 67f
12:06 6
mph
1012.1mb 71f 67f
12:00 2 3 mph 1012.1mb 71f 67f
dim. 10/19 11:54 2 3 mph 1012.1mb 71f 68f
11:48 2 3 mph 1012.1mb 71f 68f
11:42 2
mph
1012.1mb 71f 68f
11:36 1 2 mph 1012.1mb 71f 68f
11:30 1 2 mph 1012.1mb 71f 68f
11:24  -  mph 1012.2mb 71f 68f
11:18  -  1 mph 1012.3mb 71f 68f
11:12  -  1 mph 1012.3mb 71f 68f
11:06  -  1 mph 1012.3mb 71f 68f
11:00  -  1 mph 1012.3mb 71f 68f
10:54  -  1 mph 1012.3mb 71f 68f
10:48  -  1 mph 1012.3mb 71f 68f
10:42 1
mph
1012.3mb 71f 68f
10:36  -  1 mph 1012.3mb 71f 68f
10:30  -  1 mph 1012.3mb 71f 68f
10:24  -  1 mph 1012.4mb 71f 68f
10:18  -  1 mph 1012.4mb 71f 68f
10:12 1 2 mph 1012.4mb 71f 68f
10:06 2
mph
1012.4mb 71f 68f
10:00 2
mph
1012.4mb 71f 68f
9:48 2
mph
1012.3mb 71f 68f
9:42 2
mph
1012.3mb 71f 68f
9:36 2 3 mph 1012.2mb 71f 68f
9:30 3
mph
1012.2mb 71f 68f
9:24 2 3 mph 1012.2mb 71f 68f
9:18 2
mph
1012.2mb 71f 68f
9:12 2
mph
1012.2mb 71f 68f
9:06 2
mph
1012.2mb 71f 68f
9:00 2
mph
1012.1mb 71f 68f
8:54 2
mph
1012mb 71f 68f
8:48 1 2 mph 1011.9mb 71f 68f
8:30 2 3 mph 1011.8mb 71f 69f
8:24 2 3 mph 1011.7mb 71f 69f
8:18 2 3 mph 1011.7mb 71f 69f
8:12 2 3 mph 1011.7mb 71f 69f
8:06 2 3 mph 1011.7mb 71f 68f
8:00 2 3 mph 1011.7mb 71f 68f
7:54 3
mph
1011.6mb 71f 68f
7:48 1 2 mph 1011.6mb 71f 68f
7:42 2 3 mph 1011.6mb 71f 68f
7:36 2 3 mph 1011.6mb 71f 68f
7:30 2 3 mph 1011.5mb 71f -
7:24 2 3 mph 1011.5mb 71f -
7:18 3 5 mph 1011.4mb 71f 69f
7:12 3 5 mph 1011.4mb 71f 69f
7:06 3 5 mph 1011.4mb 71f 69f
7:00 3 5 mph 1011.4mb 71f 69f
6:54 3 5 mph 1011.3mb 71f 69f
6:48 2 3 mph 1011.3mb 71f 69f
6:42 3 5 mph 1011.3mb 71f 69f
6:36 2 5 mph 1011.2mb 71f 69f
6:30 3 5 mph 1011.1mb 71f 69f
6:24 3 5 mph 1011mb 71f 69f
6:18 2 5 mph 1011mb 71f 69f
6:12 5
mph
1011mb 71f 69f
6:06 5 6 mph 1011mb 71f 69f
6:00 5
mph
1010.9mb 71f 69f
5:54 3 5 mph 1010.8mb 71f 69f
5:48 3 6 mph 1010.7mb 71f 69f
5:42 5 6 mph 1010.7mb 71f 69f
5:36 5 6 mph 1010.8mb 71f 70f
5:30 5 6 mph 1010.9mb 71f 70f
5:24 6 7 mph 1010.9mb 71f 70f
5:18 6 8 mph 1011mb 71f 69f
5:12 7 8 mph 1011mb 71f 70f
5:06 7 8 mph 1010.9mb 71f 70f
5:00 7 8 mph 1010.8mb 71f 70f
4:54 7 8 mph 1010.8mb 71f 70f
4:48 6 8 mph 1010.8mb 71f 70f
4:42 6 8 mph 1010.9mb 71f 70f
4:36 6 8 mph 1010.9mb 71f 70f
4:30 7 9 mph 1011mb 71f 70f
4:24 7 8 mph 1011mb 71f 70f
4:18 6 8 mph 1011mb 71f 70f
4:12 6 8 mph 1011mb 71f 70f
4:06 7 9 mph 1011.1mb 71f 70f
4:00 8 9 mph 1011.1mb 71f 70f
3:54 7 9 mph 1011.1mb 71f 70f
3:48 8 11 mph 1011.1mb 71f 70f
3:42 10 11 mph 1011.2mb 71f 70f
3:36 9 11 mph 1011.2mb 71f 70f
3:30 9 10 mph 1011.2mb 71f 70f
3:24 9 11 mph 1011.3mb 71f 70f
3:18 8 11 mph 1011.4mb 71f 70f
3:12 10 13 mph 1011.4mb 71f 70f
3:06 9 11 mph 1011.4mb 71f 70f
3:00 10 11 mph 1011.5mb 71f 70f
2:54 8 11 mph 1011.5mb 71f 71f
2:48 10 13 mph 1011.5mb 71f 71f
2:42 10 11 mph 1011.6mb 71f 70f
2:36 10 13 mph 1011.6mb 71f 71f
2:30 9 11 mph 1011.6mb 71f 70f
2:24 10 13 mph 1011.7mb 71f 71f
2:18 10 13 mph 1011.6mb 71f 71f
2:12 8 11 mph 1011.6mb 71f 71f
2:06 9 13 mph 1011.6mb 71f 71f
2:00 8 10 mph 1011.6mb 71f 71f
1:54 8 9 mph 1011.6mb 71f 71f
1:48 7 9 mph 1011.6mb 71f 71f
1:42 7 9 mph 1011.7mb 71f 71f
1:36 8 9 mph 1011.7mb 71f 71f
1:30 7 9 mph 1011.8mb 71f 71f
1:24 8 10 mph 1011.8mb 71f 70f
1:18 7 9 mph 1011.9mb 71f 70f
1:12 8 10 mph 1011.9mb 71f 70f
1:06 7 9 mph 1012mb 71f 70f
1:00 7 9 mph 1012mb 71f 70f
12:54 7 8 mph 1012.1mb 71f 70f
12:48 7 8 mph 1012.2mb 71f 70f
12:42 8 9 mph 1012.3mb 71f 70f
12:36 8 9 mph 1012.3mb 71f 70f
12:30 8 9 mph 1012.4mb 71f 70f
12:24 7 8 mph 1012.5mb 71f 70f
12:18 8
mph
1012.6mb 71f 70f
12:12 6 7 mph 1012.6mb 71f 71f
12:06 6 7 mph 1012.6mb 71f 71f
12:00 6 7 mph 1012.6mb 71f 71f
11:54 6 7 mph 1012.6mb 71f 71f
11:48 6 7 mph 1012.6mb 71f 71f
11:42 6
mph
1012.7mb 71f 71f
11:36 5 6 mph 1012.8mb 71f 71f
11:30 5 6 mph 1012.8mb 71f 70f
11:24 6
mph
1012.8mb 71f 70f
11:18 6
mph
1012.9mb 71f 70f
11:12 5 6 mph 1013mb 71f 70f
11:06 5 6 mph 1013mb 70f 70f
11:00 5
mph
1013mb 70f 70f
10:54 3 5 mph 1013.1mb 70f 71f
10:48 5 6 mph 1013.2mb 70f 72f
10:42 3 5 mph 1013.2mb 70f 72f
10:36 3 5 mph 1013.2mb 70f 71f
10:30 3 5 mph 1013.3mb 70f 71f
10:24 3
mph
1013.3mb 70f 70f
10:18 3 5 mph 1013.3mb 70f 70f
10:12 2 3 mph 1013.4mb 70f 70f
10:06 3
mph
1013.4mb 70f 70f
10:00 2 3 mph 1013.5mb 70f 70f
9:54 2 5 mph 1013.5mb 70f 70f
9:48 6
mph
1013.4mb 70f 70f
9:42 3 5 mph 1013.4mb 70f 70f
9:36 3 5 mph 1013.4mb 70f 70f
9:30 3
mph
1013.4mb 70f 70f
9:24 3 6 mph 1013.4mb 70f 69f
9:18 5 6 mph 1013.3mb 70f 69f
9:12 3
mph
1013.3mb 70f 70f
9:06 3 5 mph 1013.3mb 70f 69f
9:00 3 5 mph 1013.3mb 70f 69f
8:54 3 5 mph 1013.2mb 70f 69f
8:48 5 6 mph 1013.2mb 70f 69f
8:42 5 7 mph 1013.1mb 70f 68f
8:36 6 7 mph 1013.1mb 70f 67f
8:30 6 8 mph 1013.1mb 70f 67f
8:24 7 8 mph 1013mb 70f 67f
8:18 7 8 mph 1013mb 70f 66f
8:12 7 8 mph 1012.9mb 70f 66f
8:06 7 8 mph 1012.8mb 70f 66f
8:00 7 9 mph 1012.8mb 70f 66f
7:54 8 9 mph 1012.7mb 70f 65f
7:48 8 9 mph 1012.6mb 70f 65f
7:42 8 9 mph 1012.5mb 70f 65f
7:36 8 9 mph 1012.4mb 70f 65f
7:30 8 9 mph 1012.3mb 70f 65f
7:24 8 10 mph 1012.3mb 70f 65f
7:18 8 10 mph 1012.2mb 70f 65f
7:12 9
mph
1012.1mb 70f 65f
7:06 8 10 mph 1012mb 70f 64f
7:00 9 10 mph 1012mb 70f 64f
6:54 9 10 mph 1011.9mb 70f 64f
6:48 9 10 mph 1011.9mb 70f 64f
6:42 8 10 mph 1011.8mb 70f 64f
6:36 8 9 mph 1011.8mb 70f 64f
6:30 8 9 mph 1011.8mb 70f 65f
6:24 8 9 mph 1011.7mb 70f 65f
6:18 8 9 mph 1011.7mb 70f 64f
6:12 8 9 mph 1011.7mb 71f 64f
6:06 8 9 mph 1011.7mb 71f 65f
6:00 7 9 mph 1011.7mb 71f 65f
5:54 8 9 mph 1011.6mb 71f 65f
5:48 8 9 mph 1011.6mb 71f 65f
5:42 8 9 mph 1011.6mb 71f 65f
5:36 8 9 mph 1011.5mb 71f 65f
5:30 8 9 mph 1011.5mb 71f 65f
5:24 8 9 mph 1011.5mb 71f 65f
5:18 8 9 mph 1011.4mb 71f 65f
5:12  -  mph 1011.4mb 71f 64f
5:06  -  mph 1011.3mb 71f 65f
5:00  -  mph 1011.2mb 71f 65f
4:54  -  mph 1011.2mb 71f 64f
2:06 7 8 mph 1011.6mb 71f 66f
2:00 7 8 mph 1011.7mb 71f 66f
1:54 7 8 mph 1011.7mb 71f 66f
1:48 6 7 mph 1011.8mb 71f 65f
1:42 6 7 mph 1011.8mb 71f 65f
1:36 6
mph
1011.8mb 71f 65f
1:30 6
mph
1011.8mb 71f 65f
1:24 5 6 mph 1011.8mb 71f 65f
1:18 5 6 mph 1011.7mb 71f 66f
1:12 3
mph
1011.7mb 71f 66f
1:06 1
mph
1011.7mb 71f 66f
1:00  -  1 mph 1011.7mb 71f 67f
12:54  -  1 mph 1011.6mb 71f 67f
12:48  -  1 mph 1011.6mb 71f 67f
12:42 1 2 mph 1011.6mb 71f 67f
12:36 2
mph
1011.6mb 71f 67f
12:30 1 2 mph 1011.6mb 71f 67f
12:24  -  1 mph 1011.6mb 71f 67f
12:18  -  1 mph 1011.6mb 71f 67f
12:12 1
mph
1011.7mb 71f 67f
12:06  -  2 mph 1011.7mb 71f 67f
12:00 2
mph
1011.7mb 71f 67f
sam. 10/18 11:54 1 2 mph 1011.7mb 71f 67f
11:48 1 2 mph 1011.6mb 71f 67f
11:42  -  2 mph 1011.7mb 71f 67f
11:36 1 2 mph 1011.7mb 71f 67f
11:30  -  mph 1011.7mb 71f 67f
11:24  -  1 mph 1011.8mb 71f 67f
11:18  -  2 mph 1011.8mb 71f 67f
11:12  -  1 mph 1011.8mb 71f 67f
11:06  -  2 mph 1011.9mb 71f 67f
11:00 1 2 mph 1011.9mb 71f 67f
10:54  -  1 mph 1011.9mb 71f 67f
10:48  -  mph 1011.9mb 71f 67f
10:42  -  1 mph 1011.9mb 71f 67f
10:36 1 2 mph 1012mb 71f 67f
10:30  -  2 mph 1012mb 71f 67f
10:24 2 3 mph 1012mb 71f 67f
10:18  -  2 mph 1012mb 71f 68f
10:12 1 2 mph 1012mb 71f 68f
10:06 2
mph
1012mb 71f 68f
10:00 1 2 mph 1012.1mb 71f 68f
9:54  -  1 mph 1012.1mb 71f 68f
9:48 2
mph
1012.1mb 71f 68f
9:42 2
mph
1012.1mb 71f 68f
9:36 2
mph
1012.1mb 71f 68f
9:30 2 3 mph 1012.1mb 71f 68f
9:24 2 3 mph 1012.1mb 71f 69f
9:18 3 5 mph 1012.1mb 71f 69f
9:12 5 6 mph 1012.1mb 71f 69f
9:06 5 6 mph 1012.1mb 71f 69f
9:00 3 6 mph 1012.1mb 71f 69f
8:54 5 6 mph 1012mb 71f 69f
8:48 3 6 mph 1011.9mb 71f 69f
8:42 5 6 mph 1011.9mb 71f 69f
8:36 5 6 mph 1011.8mb 71f 69f
8:30 3 5 mph 1011.8mb 71f 69f
8:24 5 7 mph 1011.8mb 71f 69f
8:18 5 6 mph 1011.8mb 71f 69f
8:12 5 6 mph 1011.8mb 71f 69f
8:06 5 6 mph 1011.8mb 71f 69f
8:00 5 6 mph 1011.8mb 71f 69f
7:54 6 7 mph 1011.8mb 71f 69f
7:48 6 7 mph 1011.7mb 71f 69f
7:42 6 7 mph 1011.7mb 71f 69f
7:36 6 7 mph 1011.7mb 71f 69f
7:30 6 7 mph 1011.6mb 71f 69f
7:24 6 7 mph 1011.6mb 71f 69f
7:18 7 8 mph 1011.5mb 71f 69f
7:12 6 7 mph 1011.4mb 71f 69f
7:06 6 8 mph 1011.4mb 71f 69f
7:00 7 8 mph 1011.4mb 71f 69f
6:54 6 7 mph 1011.3mb 71f 69f
6:48 6 8 mph 1011.2mb 71f 69f
6:42 6 8 mph 1011.2mb 71f 69f
6:36 6 7 mph 1011.2mb 71f 69f
6:30 6 7 mph 1011.1mb 71f 69f
6:24 6 8 mph 1011.1mb 71f 69f
6:18 6 8 mph 1011.1mb 71f 69f
6:12 6 8 mph 1011mb 71f 69f
6:06 7 8 mph 1011mb 71f 69f
6:00 7 9 mph 1011mb 71f 69f
5:54 7 9 mph 1010.9mb 71f 70f
5:48 6 8 mph 1010.9mb 71f 70f
5:42 8 9 mph 1010.9mb 71f 70f
5:36 7 8 mph 1010.9mb 71f 70f
5:30 7 8 mph 1010.9mb 71f 70f
5:24 7 9 mph 1010.9mb 71f 71f
5:18 6 9 mph 1010.9mb 71f 71f
5:12 7 9 mph 1010.8mb 71f 71f
5:06 7 10 mph 1010.8mb 71f 71f
5:00 7 9 mph 1010.8mb 71f 71f
4:54 8 10 mph 1010.9mb 71f 71f
4:48 8 10 mph 1010.9mb 71f 71f
4:42 8 11 mph 1010.9mb 71f 71f
4:36 8 10 mph 1010.9mb 72f 71f
4:30 8 10 mph 1011mb 72f 71f
4:24 8 10 mph 1011mb 71f 71f
4:18 9 11 mph 1011mb 72f 71f
4:12 9 11 mph 1011mb 71f 71f
4:06 8 11 mph 1011.1mb 72f 71f
4:00 9 11 mph 1011.1mb 72f 71f
3:54 9 11 mph 1011.1mb 72f 71f
3:48 7 10 mph 1011.1mb 71f 71f
3:42 8 10 mph 1011.2mb 72f 71f
3:36 9 11 mph 1011.1mb 72f 71f
3:30 8 11 mph 1011.2mb 72f 71f
3:24 9 10 mph 1011.2mb 72f 71f
3:18 9 13 mph 1011.2mb 71f 71f
3:12 9 11 mph 1011.2mb 71f 71f
3:06 9 10 mph 1011.3mb 71f 70f
3:00 8 10 mph 1011.3mb 72f 71f
2:54 8 10 mph 1011.4mb 72f 71f
2:48 9 11 mph 1011.4mb 71f 70f
2:42 9 10 mph 1011.5mb 71f 70f
2:36 8 10 mph 1011.5mb 71f 71f
2:30 8 9 mph 1011.6mb 71f 71f
2:24 8 9 mph 1011.6mb 71f 71f
2:18 8 9 mph 1011.6mb 71f 71f
2:12 7 9 mph 1011.7mb 71f 71f
2:06 8 10 mph 1011.7mb 71f 70f
2:00 7 10 mph 1011.8mb 71f 70f
1:54 8 11 mph 1011.8mb 71f 70f
1:48 8 10 mph 1011.9mb 71f 70f
1:42 8 10 mph 1011.9mb 71f 70f
1:36 8 9 mph 1012mb 71f 70f
1:30 8 9 mph 1012mb 71f 70f
1:24 8 10 mph 1012.1mb 71f 69f
1:18 6 8 mph 1012.2mb 71f 70f
1:12 8 9 mph 1012.3mb 71f 70f
1:06 9 10 mph 1012.3mb 71f 70f
1:00 8 10 mph 1012.5mb 70f 69f
12:54 8 9 mph 1012.5mb 70f 70f
12:48 8 10 mph 1012.6mb 70f 70f
12:42 6 9 mph 1012.7mb 70f 71f
12:36 6 9 mph 1012.8mb 70f 70f
12:30 8 10 mph 1012.8mb 71f 70f
12:24 9 10 mph 1012.9mb 70f 70f
12:18 7 9 mph 1013mb 70f 70f
12:12 8 9 mph 1013mb 71f 70f
12:06 8 10 mph 1013.1mb 71f 70f
12:00 7 10 mph 1013.2mb 71f 70f
11:54 9 11 mph 1013.2mb 71f 70f
11:48 7 10 mph 1013.2mb 70f 70f
11:42 7 10 mph 1013.2mb 70f 71f
11:36 8 10 mph 1013.3mb 70f 70f
11:30 7 10 mph 1013.4mb 70f 70f
11:24 7 9 mph 1013.4mb 70f 70f
11:18 8 10 mph 1013.4mb 70f 70f
11:12 8 10 mph 1013.5mb 70f 71f
11:06 8 10 mph 1013.5mb 70f 70f
11:00 6 8 mph 1013.5mb 70f 70f
10:54 6 9 mph 1013.6mb 70f 69f
10:48 8 9 mph 1013.6mb 70f 69f
10:42 6 9 mph 1013.7mb 70f 70f
10:36 6 9 mph 1013.7mb 70f 70f
10:30 7 9 mph 1013.8mb 70f 69f
10:24 6 8 mph 1013.8mb 70f 69f
10:18 7 8 mph 1013.8mb 70f 69f
10:12 7 8 mph 1013.8mb 70f 69f
10:06 7 8 mph 1013.8mb 70f 69f
10:00 8 9 mph 1013.9mb 70f 69f
9:54 7 10 mph 1013.9mb 70f 69f
9:48 7 9 mph 1013.9mb 70f 69f
9:42 8 10 mph 1013.9mb 70f 69f
9:36 8 11 mph 1013.9mb 70f 68f
9:30 8 10 mph 1013.9mb 70f 68f
9:24 7 8 mph 1013.9mb 70f 69f
9:18 7 10 mph 1013.9mb 70f 69f
9:12 9 10 mph 1013.9mb 70f 69f
9:06 7 10 mph 1013.9mb 70f 69f
9:00 6 7 mph 1013.8mb 70f 69f
8:54 6 10 mph 1013.9mb 70f 69f
8:48 6 9 mph 1013.8mb 70f 69f
8:42 8 9 mph 1013.8mb 70f 68f
8:36 7 8 mph 1013.8mb 70f 69f
8:30 7 9 mph 1013.8mb 70f 69f
8:24 6 8 mph 1013.7mb 70f 69f
8:18 6 8 mph 1013.7mb 70f 69f
8:12 6 7 mph 1013.6mb 70f 69f
8:06 7 8 mph 1013.5mb 70f 68f
8:00 6
mph
1013.5mb 70f 68f
7:54 6 7 mph 1013.5mb 70f 68f
7:48 6 7 mph 1013.4mb 70f 68f
7:42 5 7 mph 1013.5mb 70f 68f
7:36 2 5 mph 1013.4mb 70f 68f
7:30 5 6 mph 1013.4mb 70f 68f
7:24 6 7 mph 1013.3mb 70f 68f
7:18 7 8 mph 1013.3mb 71f 68f
7:12 5
mph
1013.2mb 70f 68f
7:06 3 5 mph 1013.1mb 70f 68f
7:00 5 9 mph 1013mb 70f 69f
6:54 7 9 mph 1013mb 70f 69f
6:48 6 7 mph 1013mb 70f 69f
6:42 5 7 mph 1012.9mb 70f 69f
6:36 6 7 mph 1013mb 70f 69f
6:30 5 6 mph 1013mb 70f 69f
6:24 3 6 mph 1013mb 71f 69f
6:18 5 6 mph 1013mb 71f 69f
6:12 5 6 mph 1013mb 71f 69f
6:06 6
mph
1013mb 71f 69f
6:00 5 6 mph 1013.1mb 71f 69f
5:54 6 8 mph 1013mb 71f 69f
5:48 6 7 mph 1013mb 71f 69f
5:42 6 8 mph 1013.1mb 71f 69f
5:36 7 9 mph 1013.1mb 71f 68f
5:30 8 9 mph 1013mb 71f 68f
5:24 7 9 mph 1013mb 71f 69f
5:18 7 9 mph 1013mb 71f 69f
5:12 8 10 mph 1013mb 71f 68f
5:06 7 10 mph 1012.9mb 70f 68f
5:00 6 10 mph 1012.9mb 71f 69f
4:54 8 10 mph 1012.9mb 71f 69f
4:48 8 11 mph 1012.9mb 71f 69f
4:42 7 10 mph 1012.9mb 71f 69f
4:36 8 10 mph 1012.8mb 71f 69f
4:30 8 10 mph 1012.8mb 71f 69f
4:24 8 11 mph 1012.8mb 71f 69f
4:18 8 10 mph 1012.8mb 70f 69f
4:12 8 10 mph 1012.8mb 70f 69f
4:06 9 10 mph 1012.8mb 70f 69f
4:00 8 10 mph 1012.8mb 71f 69f
3:54 8 10 mph 1012.8mb 71f 69f
3:48 7 9 mph 1012.9mb 71f 69f
3:42 7 9 mph 1012.9mb 71f 69f
3:36 7 10 mph 1012.9mb 71f 69f